RYR4TT EGPH-LZIB

Flight info

Callsign RYR4TT
Flight time N/A
Altitude 25000
Route TLA Y96 OTBUN/N0437F350 DCT LONAM/N0438F370 DCT POVEL DCT OMELO DCT EVIKU DCT BNO DCT ODNEM/N0311F130 A4 BERVA
Aircraft B738/M-SDE2E3FGHIRWXY/LB1

Departure

Time 2026-05-04 14:36
Airport Edinburgh Airport (EGPH)

Arrival

Time N/A
Airport M. R. Štefánik Airport (LZIB)
Time Latitude Longitude Altitude Speed Heading
2026-05-04 14:13 55.94896 -3.35994 142 ft 0 kts 255°
2026-05-04 14:24 55.94896 -3.35993 142 ft 1 kts 255°
2026-05-04 14:25 55.94900 -3.35968 142 ft 2 kts 254°
2026-05-04 14:25 55.94908 -3.35917 142 ft 2 kts 255°
2026-05-04 14:25 55.94912 -3.35892 142 ft 2 kts 255°
2026-05-04 14:26 55.94917 -3.35866 142 ft 2 kts 255°
2026-05-04 14:26 55.94920 -3.35839 142 ft 2 kts 271°
2026-05-04 14:26 55.94918 -3.35813 142 ft 2 kts 287°
2026-05-04 14:26 55.94915 -3.35798 142 ft 1 kts 298°
2026-05-04 14:27 55.94912 -3.35790 142 ft 0 kts 298°
2026-05-04 14:32 55.94939 -3.35851 142 ft 8 kts 326°
2026-05-04 14:32 55.94982 -3.35861 142 ft 11 kts 18°
2026-05-04 14:32 55.95079 -3.35788 142 ft 10 kts 349°
2026-05-04 14:32 55.95115 -3.35855 142 ft 13 kts 297°
2026-05-04 14:33 55.95209 -3.35983 142 ft 11 kts 356°
2026-05-04 14:33 55.95275 -3.35865 142 ft 16 kts 59°
2026-05-04 14:33 55.95348 -3.35656 142 ft 22 kts 58°
2026-05-04 14:33 55.95399 -3.35496 142 ft 12 kts 58°
2026-05-04 14:34 55.95422 -3.35431 142 ft 7 kts 55°
2026-05-04 14:34 55.95480 -3.35421 142 ft 0 kts 328°
2026-05-04 14:34 55.95506 -3.35450 142 ft 6 kts 329°
2026-05-04 14:35 55.95555 -3.35506 142 ft 7 kts 323°
2026-05-04 14:35 55.95565 -3.35576 142 ft 10 kts 253°
2026-05-04 14:35 55.95544 -3.35642 142 ft 0 kts 239°
2026-05-04 14:35 55.95423 -3.35991 142 ft 68 kts 240°
2026-05-04 14:36 55.95066 -3.37039 143 ft 128 kts 240°
2026-05-04 14:36 55.94497 -3.38605 264 ft 163 kts 239°
2026-05-04 14:36 55.94076 -3.39765 574 ft 171 kts 241°
2026-05-04 14:36 55.93309 -3.42112 1615 ft 164 kts 244°
2026-05-04 14:37 55.92707 -3.43959 2042 ft 177 kts 242°
2026-05-04 14:37 55.92051 -3.45875 2468 ft 189 kts 241°
2026-05-04 14:37 55.91569 -3.47262 2698 ft 202 kts 241°
2026-05-04 14:37 55.90540 -3.50245 3252 ft 225 kts 242°
2026-05-04 14:38 55.89714 -3.52727 3772 ft 238 kts 242°
2026-05-04 14:38 55.89153 -3.54457 4116 ft 246 kts 243°
2026-05-04 14:38 55.87957 -3.58032 4895 ft 259 kts 236°
2026-05-04 14:38 55.87111 -3.59556 5336 ft 266 kts 218°
2026-05-04 14:39 55.84765 -3.60959 5949 ft 278 kts 185°
2026-05-04 14:39 55.82835 -3.60453 5968 ft 281 kts 162°
2026-05-04 14:39 55.81666 -3.59472 5971 ft 281 kts 150°
2026-05-04 14:40 55.78877 -3.53145 5994 ft 284 kts 120°
2026-05-04 14:40 55.78115 -3.51217 5983 ft 284 kts 136°
2026-05-04 14:40 55.76501 -3.49304 5994 ft 281 kts 160°
2026-05-04 14:40 55.74009 -3.47987 5986 ft 279 kts 168°
2026-05-04 14:41 55.72769 -3.47446 5988 ft 279 kts 168°
2026-05-04 14:41 55.70258 -3.46266 5988 ft 279 kts 166°
2026-05-04 14:41 55.66557 -3.44316 5985 ft 279 kts 165°
2026-05-04 14:42 55.62842 -3.42283 5988 ft 278 kts 165°
2026-05-04 14:42 55.61015 -3.41286 5988 ft 278 kts 165°
2026-05-04 14:42 55.59156 -3.40276 5987 ft 278 kts 165°
2026-05-04 14:43 55.57300 -3.39271 5984 ft 278 kts 165°
2026-05-04 14:43 55.55469 -3.38281 5983 ft 278 kts 165°
2026-05-04 14:43 55.53619 -3.37281 5982 ft 278 kts 165°
2026-05-04 14:43 55.51828 -3.36029 5979 ft 280 kts 152°
2026-05-04 14:44 55.50345 -3.33820 5988 ft 283 kts 127°
2026-05-04 14:44 55.49479 -3.30635 6436 ft 293 kts 104°
2026-05-04 14:44 55.49193 -3.28352 7088 ft 288 kts 101°
2026-05-04 14:44 55.48694 -3.23716 8061 ft 292 kts 100°
2026-05-04 14:45 55.48318 -3.20199 8778 ft 295 kts 100°
2026-05-04 14:45 55.47937 -3.16630 9465 ft 298 kts 100°
2026-05-04 14:45 55.47684 -3.14267 9886 ft 302 kts 100°
2026-05-04 14:45 55.47157 -3.09343 10536 ft 316 kts 99°
2026-05-04 14:46 55.46880 -3.06754 10832 ft 324 kts 99°
2026-05-04 14:46 55.46304 -3.01511 11621 ft 333 kts 102°
2026-05-04 14:46 55.45888 -2.98902 12016 ft 338 kts 109°
2026-05-04 14:46 55.44555 -2.93914 12946 ft 342 kts 118°
2026-05-04 14:47 55.43363 -2.90309 13577 ft 346 kts 120°
2026-05-04 14:47 55.42115 -2.86664 14230 ft 350 kts 120°
2026-05-04 14:47 55.40868 -2.82974 14928 ft 353 kts 120°
2026-05-04 14:47 55.39646 -2.79282 15594 ft 356 kts 119°
2026-05-04 14:48 55.38821 -2.76751 16043 ft 357 kts 119°
2026-05-04 14:48 55.37183 -2.71675 16892 ft 362 kts 118°
2026-05-04 14:48 55.35940 -2.67800 17500 ft 366 kts 118°
2026-05-04 14:48 55.34705 -2.63952 18120 ft 368 kts 118°
2026-05-04 14:49 55.33441 -2.60018 18731 ft 371 kts 118°
2026-05-04 14:49 55.32175 -2.56084 19397 ft 372 kts 118°
2026-05-04 14:49 55.30914 -2.52177 19977 ft 374 kts 118°
2026-05-04 14:49 55.29628 -2.48200 20586 ft 376 kts 118°
2026-05-04 14:50 55.28397 -2.44148 21158 ft 377 kts 114°
2026-05-04 14:50 55.27378 -2.39983 21773 ft 377 kts 109°
2026-05-04 14:50 55.26451 -2.35654 22323 ft 379 kts 108°
2026-05-04 14:50 55.25598 -2.31319 22830 ft 381 kts 107°
2026-05-04 14:51 55.24760 -2.26866 23339 ft 384 kts 107°
2026-05-04 14:51 55.23929 -2.22426 23864 ft 385 kts 107°
2026-05-04 14:51 55.23082 -2.17933 24335 ft 389 kts 107°
2026-05-04 14:51 55.22228 -2.13451 24774 ft 392 kts 107°
2026-05-04 14:52 55.21359 -2.08942 24999 ft 396 kts 107°
2026-05-04 14:52 55.20475 -2.04398 24989 ft 392 kts 107°
2026-05-04 14:52 55.19590 -1.99885 24992 ft 389 kts 107°
2026-05-04 14:52 55.18999 -1.96874 24999 ft 389 kts 107°
2026-05-04 14:53 55.17823 -1.90911 24994 ft 388 kts 107°
2026-05-04 14:53 55.16938 -1.86441 24995 ft 388 kts 107°
2026-05-04 14:53 55.16060 -1.82018 24995 ft 388 kts 107°
2026-05-04 14:53 55.15171 -1.77547 25139 ft 396 kts 107°
2026-05-04 14:54 55.14263 -1.72992 25723 ft 394 kts 107°
2026-05-04 14:54 55.13371 -1.68527 26148 ft 397 kts 107°
2026-05-04 14:54 55.12456 -1.63959 26534 ft 401 kts 107°
2026-05-04 14:54 55.11529 -1.59336 26930 ft 404 kts 107°
2026-05-04 14:55 55.10601 -1.54726 27421 ft 405 kts 107°
2026-05-04 14:55 55.09650 -1.50009 27731 ft 410 kts 107°
2026-05-04 14:55 55.08704 -1.45329 28197 ft 411 kts 107°
2026-05-04 14:55 55.07738 -1.40566 28545 ft 414 kts 107°
2026-05-04 14:56 55.06786 -1.35876 28926 ft 416 kts 107°
2026-05-04 14:56 55.05817 -1.31121 29287 ft 418 kts 108°
2026-05-04 14:56 55.04839 -1.26330 29662 ft 419 kts 108°
2026-05-04 14:56 55.03866 -1.21578 30017 ft 421 kts 108°
2026-05-04 14:57 55.02874 -1.16741 30339 ft 424 kts 108°
2026-05-04 14:57 55.01884 -1.11925 30687 ft 426 kts 108°
2026-05-04 14:57 55.00884 -1.07073 30985 ft 428 kts 108°
2026-05-04 14:57 54.99878 -1.02201 31348 ft 429 kts 108°
2026-05-04 14:58 54.98860 -0.97287 31651 ft 432 kts 108°
2026-05-04 14:58 54.97847 -0.92405 31945 ft 434 kts 108°
2026-05-04 14:58 54.96808 -0.87416 32237 ft 436 kts 108°
2026-05-04 14:58 54.96122 -0.84125 32467 ft 437 kts 108°
2026-05-04 14:59 54.94731 -0.77475 32863 ft 439 kts 108°
2026-05-04 14:59 54.93691 -0.72513 33163 ft 441 kts 108°
2026-05-04 14:59 54.91573 -0.62456 33723 ft 444 kts 108°
2026-05-04 15:00 54.90854 -0.59049 33995 ft 443 kts 109°
2026-05-04 15:00 54.89460 -0.52466 34592 ft 440 kts 108°
2026-05-04 15:00 54.88742 -0.49084 34854 ft 438 kts 108°
2026-05-04 15:01 54.86262 -0.37444 35466 ft 438 kts 108°
2026-05-04 15:01 54.85200 -0.32480 35693 ft 439 kts 109°
2026-05-04 15:01 54.84136 -0.27517 35936 ft 439 kts 109°
2026-05-04 15:01 54.83067 -0.22541 36182 ft 439 kts 110°
2026-05-04 15:02 54.82006 -0.17618 36354 ft 440 kts 110°
2026-05-04 15:02 54.80968 -0.12809 36573 ft 439 kts 110°
2026-05-04 15:02 54.79900 -0.07874 36783 ft 440 kts 110°
2026-05-04 15:02 54.78831 -0.02942 36998 ft 440 kts 110°
2026-05-04 15:03 54.76672 0.06971 37037 ft 441 kts 110°
2026-05-04 15:03 54.74495 0.16924 37038 ft 439 kts 110°
2026-05-04 15:04 54.72695 0.25115 37017 ft 441 kts 110°
2026-05-04 15:04 54.70168 0.36560 37032 ft 440 kts 110°
2026-05-04 15:05 54.67974 0.46441 37006 ft 440 kts 110°
2026-05-04 15:05 54.65786 0.56254 37039 ft 440 kts 110°
2026-05-04 15:06 54.63580 0.66099 37030 ft 440 kts 111°
2026-05-04 15:07 54.60270 0.80781 37022 ft 440 kts 111°
2026-05-04 15:07 54.58064 0.90514 37019 ft 438 kts 111°
2026-05-04 15:08 54.55841 1.00269 37001 ft 438 kts 111°
2026-05-04 15:08 54.53617 1.09992 37020 ft 440 kts 111°
2026-05-04 15:09 54.51379 1.19722 37031 ft 438 kts 111°
2026-05-04 15:09 54.49139 1.29423 37021 ft 437 kts 111°
2026-05-04 15:10 54.45767 1.43944 37023 ft 437 kts 111°
2026-05-04 15:11 54.42379 1.58432 37031 ft 438 kts 111°
2026-05-04 15:11 54.40104 1.68108 37022 ft 438 kts 112°
2026-05-04 15:12 54.37815 1.77797 37034 ft 440 kts 112°
2026-05-04 15:12 54.35522 1.87463 37028 ft 438 kts 112°
2026-05-04 15:13 54.33225 1.97102 37021 ft 439 kts 112°
2026-05-04 15:13 54.30924 2.06717 37034 ft 439 kts 112°
2026-05-04 15:14 54.28617 2.16311 37025 ft 439 kts 112°
2026-05-04 15:14 54.26284 2.25971 37027 ft 440 kts 112°
2026-05-04 15:15 54.23945 2.35612 37020 ft 440 kts 112°
2026-05-04 15:15 54.21600 2.45228 37029 ft 440 kts 112°
2026-05-04 15:16 54.18070 2.59633 37014 ft 440 kts 112°
2026-05-04 15:17 54.14508 2.74070 37015 ft 441 kts 113°
2026-05-04 15:17 54.10941 2.88440 37031 ft 440 kts 113°
2026-05-04 15:18 54.08556 2.97991 37034 ft 440 kts 114°
2026-05-04 15:19 54.04957 3.12329 37023 ft 440 kts 114°
2026-05-04 15:19 54.01331 3.26680 37029 ft 442 kts 114°
2026-05-04 15:20 53.98902 3.36242 37026 ft 443 kts 114°
2026-05-04 15:20 53.96464 3.45801 37027 ft 444 kts 114°
2026-05-04 15:21 53.94015 3.55362 37028 ft 444 kts 114°
2026-05-04 15:22 53.90319 3.69710 37025 ft 444 kts 115°
2026-05-04 15:22 53.86591 3.84091 37027 ft 443 kts 115°
2026-05-04 15:23 53.84148 3.93464 37027 ft 445 kts 115°
2026-05-04 15:23 53.81853 4.03181 37026 ft 447 kts 111°
2026-05-04 15:24 53.77771 4.22969 37025 ft 447 kts 110°
2026-05-04 15:25 53.75716 4.32782 37023 ft 447 kts 111°
2026-05-04 15:26 53.72544 4.47620 37019 ft 449 kts 111°
2026-05-04 15:26 53.69344 4.62378 37016 ft 448 kts 111°
2026-05-04 15:27 53.66116 4.77142 37020 ft 450 kts 112°
2026-05-04 15:28 53.62857 4.91941 37022 ft 450 kts 112°
2026-05-04 15:29 53.59578 5.06727 37007 ft 450 kts 112°
2026-05-04 15:30 53.51860 5.41119 36993 ft 452 kts 113°
2026-05-04 15:31 53.48508 5.55881 36988 ft 453 kts 113°
2026-05-04 15:32 53.42877 5.80450 37003 ft 454 kts 114°
2026-05-04 15:34 53.37189 6.04983 36987 ft 455 kts 114°
2026-05-04 15:34 53.33736 6.19742 36977 ft 455 kts 114°
2026-05-04 15:35 53.30278 6.34414 36988 ft 456 kts 114°
2026-05-04 15:36 53.26784 6.49146 36976 ft 455 kts 114°
2026-05-04 15:36 53.24453 6.58923 36975 ft 457 kts 114°
2026-05-04 15:37 53.22091 6.68779 36975 ft 457 kts 115°
2026-05-04 15:37 53.19746 6.78520 36981 ft 457 kts 115°
2026-05-04 15:38 53.17371 6.88340 36977 ft 458 kts 116°
2026-05-04 15:38 53.14977 6.98191 36980 ft 459 kts 115°
2026-05-04 15:39 53.12595 7.07944 36959 ft 459 kts 116°
2026-05-04 15:40 53.08992 7.22629 36966 ft 460 kts 116°
2026-05-04 15:40 53.06567 7.32453 36967 ft 459 kts 116°
2026-05-04 15:41 53.04138 7.42251 36957 ft 460 kts 116°
2026-05-04 15:41 53.01700 7.52042 36957 ft 461 kts 116°
2026-05-04 15:42 52.99249 7.61841 36961 ft 462 kts 116°
2026-05-04 15:42 52.96783 7.71656 36977 ft 460 kts 117°
2026-05-04 15:43 52.94320 7.81419 36964 ft 461 kts 117°
2026-05-04 15:43 52.91853 7.91154 36957 ft 460 kts 117°
2026-05-04 15:44 52.89376 8.00883 36965 ft 461 kts 116°
2026-05-04 15:44 52.86878 8.10652 36972 ft 461 kts 117°
2026-05-04 15:45 52.84392 8.20335 36961 ft 460 kts 117°
2026-05-04 15:45 52.81880 8.30079 36963 ft 462 kts 117°
2026-05-04 15:46 52.79365 8.39790 36965 ft 461 kts 117°
2026-05-04 15:46 52.76854 8.49446 36963 ft 461 kts 117°
2026-05-04 15:47 52.74315 8.59159 36956 ft 462 kts 117°
2026-05-04 15:47 52.71766 8.68876 36962 ft 462 kts 118°
2026-05-04 15:48 52.69238 8.78479 36945 ft 460 kts 118°
2026-05-04 15:48 52.65394 8.92989 36938 ft 460 kts 117°
2026-05-04 15:49 52.62833 9.02605 36936 ft 461 kts 118°
2026-05-04 15:49 52.60252 9.12255 36951 ft 462 kts 118°
2026-05-04 15:50 52.57670 9.21870 36930 ft 461 kts 118°
2026-05-04 15:50 52.55092 9.31431 36948 ft 462 kts 118°
2026-05-04 15:51 52.52489 9.41043 36942 ft 462 kts 118°
2026-05-04 15:51 52.49878 9.50639 36963 ft 462 kts 118°
2026-05-04 15:52 52.47281 9.60156 36969 ft 459 kts 118°
2026-05-04 15:52 52.44647 9.69754 36954 ft 461 kts 119°
2026-05-04 15:53 52.42023 9.79281 36954 ft 460 kts 118°
2026-05-04 15:53 52.39402 9.88759 36943 ft 461 kts 118°
2026-05-04 15:54 52.36755 9.98300 36934 ft 461 kts 118°
2026-05-04 15:54 52.34103 10.07817 36951 ft 462 kts 119°
2026-05-04 15:55 52.31446 10.17313 36946 ft 460 kts 118°
2026-05-04 15:55 52.28790 10.26759 36940 ft 460 kts 118°
2026-05-04 15:56 52.26118 10.36225 36935 ft 460 kts 118°
2026-05-04 15:56 52.23450 10.45642 36943 ft 459 kts 118°
2026-05-04 15:57 52.20787 10.55001 36939 ft 458 kts 118°
2026-05-04 15:57 52.18101 10.64403 36951 ft 460 kts 118°
2026-05-04 15:58 52.15407 10.73805 36942 ft 457 kts 119°
2026-05-04 15:58 52.12754 10.83172 36930 ft 458 kts 120°
2026-05-04 15:59 52.09649 10.92133 36937 ft 454 kts 127°
2026-05-04 15:59 52.06235 11.00712 36929 ft 455 kts 128°
2026-05-04 16:00 52.02801 11.09258 36932 ft 454 kts 127°
2026-05-04 16:00 51.99392 11.17855 36928 ft 454 kts 127°
2026-05-04 16:01 51.96005 11.26474 36936 ft 453 kts 126°
2026-05-04 16:01 51.92651 11.35046 36942 ft 453 kts 126°
2026-05-04 16:02 51.89275 11.43670 36941 ft 453 kts 126°
2026-05-04 16:03 51.84251 11.56473 36940 ft 453 kts 126°
2026-05-04 16:03 51.80856 11.65088 36931 ft 453 kts 127°
2026-05-04 16:04 51.77478 11.73635 36929 ft 452 kts 127°
2026-05-04 16:04 51.72390 11.86458 36924 ft 452 kts 127°
2026-05-04 16:05 51.69008 11.94944 36927 ft 452 kts 127°
2026-05-04 16:06 51.63935 12.07620 36922 ft 452 kts 127°
2026-05-04 16:07 51.57134 12.24519 36933 ft 452 kts 127°
2026-05-04 16:08 51.50291 12.41410 36933 ft 451 kts 127°
2026-05-04 16:09 51.41766 12.62297 36929 ft 450 kts 127°
2026-05-04 16:10 51.34911 12.78971 36933 ft 450 kts 127°
2026-05-04 16:11 51.28048 12.95553 36935 ft 449 kts 127°
2026-05-04 16:12 51.17710 13.20336 36936 ft 449 kts 127°
2026-05-04 16:13 51.10797 13.36780 36940 ft 448 kts 127°
2026-05-04 16:14 51.03876 13.53133 36950 ft 448 kts 127°
2026-05-04 16:16 50.95198 13.73500 36950 ft 447 kts 128°
2026-05-04 16:17 50.86463 13.93829 36951 ft 448 kts 128°
2026-05-04 16:18 50.80578 14.05112 36947 ft 443 kts 139°
2026-05-04 16:18 50.78322 14.08465 36944 ft 441 kts 141°
2026-05-04 16:19 50.66902 14.24519 36922 ft 441 kts 141°
2026-05-04 16:20 50.55552 14.40639 36928 ft 442 kts 141°
2026-05-04 16:22 50.44276 14.56871 36934 ft 442 kts 137°
2026-05-04 16:23 50.31882 14.78198 36942 ft 442 kts 135°
2026-05-04 16:25 50.19436 14.99329 36941 ft 442 kts 135°
2026-05-04 16:26 50.04834 15.23777 36935 ft 443 kts 135°
2026-05-04 16:28 49.94346 15.41197 36942 ft 443 kts 135°
2026-05-04 16:29 49.79545 15.65574 36950 ft 446 kts 135°
2026-05-04 16:31 49.68911 15.82946 36957 ft 447 kts 135°
2026-05-04 16:32 49.56145 16.03646 36246 ft 437 kts 135°
2026-05-04 16:33 49.51979 16.10365 35317 ft 433 kts 135°
2026-05-04 16:33 49.47873 16.16970 34353 ft 428 kts 135°
2026-05-04 16:34 49.43783 16.23530 33420 ft 421 kts 135°
2026-05-04 16:34 49.41801 16.26704 32967 ft 417 kts 135°
2026-05-04 16:35 49.35871 16.36179 31609 ft 407 kts 134°
2026-05-04 16:35 49.30055 16.45427 30245 ft 398 kts 134°
2026-05-04 16:36 49.28151 16.48449 29801 ft 395 kts 134°
2026-05-04 16:36 49.24375 16.54438 28900 ft 389 kts 134°
2026-05-04 16:37 49.20659 16.60315 28004 ft 384 kts 134°
2026-05-04 16:37 49.18805 16.63240 27556 ft 381 kts 134°
2026-05-04 16:37 49.15151 16.68996 26678 ft 376 kts 135°
2026-05-04 16:38 49.11569 16.74713 25794 ft 371 kts 134°
2026-05-04 16:39 49.06337 16.83169 24473 ft 364 kts 134°
2026-05-04 16:39 49.02904 16.88697 23601 ft 358 kts 134°
2026-05-04 16:40 48.99492 16.94171 22742 ft 354 kts 135°
2026-05-04 16:40 48.96142 16.99530 21895 ft 349 kts 135°
2026-05-04 16:41 48.92826 17.04822 21053 ft 345 kts 135°
2026-05-04 16:41 48.87917 17.12634 19786 ft 338 kts 136°
2026-05-04 16:42 48.83107 17.20280 18542 ft 332 kts 136°
2026-05-04 16:43 48.79941 17.25328 17721 ft 327 kts 136°
2026-05-04 16:43 48.76829 17.30279 16918 ft 323 kts 136°
2026-05-04 16:43 48.75296 17.32712 16513 ft 321 kts 136°
2026-05-04 16:44 48.69221 17.42327 14926 ft 313 kts 136°
2026-05-04 16:45 48.66227 17.47054 14148 ft 309 kts 136°
2026-05-04 16:46 48.61818 17.53999 13005 ft 302 kts 136°
2026-05-04 16:46 48.58925 17.58428 12987 ft 297 kts 137°
2026-05-04 16:47 48.55924 17.62735 13000 ft 296 kts 146°
2026-05-04 16:47 48.52242 17.65217 12999 ft 292 kts 165°
2026-05-04 16:48 48.46468 17.68007 12989 ft 291 kts 164°
2026-05-04 16:48 48.44559 17.69001 12977 ft 291 kts 163°
2026-05-04 16:49 48.40763 17.71010 12989 ft 290 kts 163°
2026-05-04 16:49 48.36955 17.73029 12998 ft 290 kts 163°
2026-05-04 16:50 48.33144 17.75040 12986 ft 291 kts 163°
2026-05-04 16:50 48.29306 17.76968 12986 ft 290 kts 169°
2026-05-04 16:51 48.25452 17.76277 12995 ft 287 kts 211°
2026-05-04 16:51 48.23877 17.74442 12992 ft 287 kts 223°
2026-05-04 16:51 48.21022 17.70262 12988 ft 286 kts 224°
2026-05-04 16:52 48.18191 17.66119 12978 ft 286 kts 224°
2026-05-04 16:52 48.16763 17.64038 12974 ft 285 kts 224°
2026-05-04 16:53 48.13934 17.59924 12978 ft 286 kts 224°
2026-05-04 16:53 48.10466 17.53103 12978 ft 269 kts 260°